FIREBIRD 3

导读

FIREBIRD 3是美国于北京时间2015年1月31日8时发射的侦察卫星,由美国国家侦察局建造,美国空军太空司令部运营,属FIREBIRD系列第三颗卫星。它主要执行电子情报收集任务,对全球雷达与通信信号开展持续监视,在轨服役近十年后,于2022年退役脱离轨道,现已陨落,结束了情报监测使命。

基本信息
目录编号:
40377
目录名称:
FIREBIRD 3
国际标识:
2015-003B
轨道中心:
EARTH
卫星名称:
FIREBIRD 3
卫星全名:
--
卫星状态:
已陨落 最后检测时间 2023-08-02
发射日期:
2015-01-31 UTC
国别 :
美国 (US)
星等 :
--
轨道信息
数据来源 国际轨道数据
星历时间: 2023-08-01T11:52:49+0800
轨道信息已过期1078天
半长轴: 6542.266km
偏心率: 0.0007269
轨道倾角: 99.046°
近地点辐角 195.969°
升交点赤经 186.761°
平近点角 164.138°
近地点: 159.375km
远地点: 168.887km
周期: 87.771分钟
每日圈数: 16.406295
详细信息
使用方式:
暂无